7 * 24
多渠道服务支持
STARLINK-34253 是 SpaceX Starlink 项目中的一颗低轨通信卫星,属于该星座的众多组网卫星之一。该卫星旨在为全球用户提供高速互联网服务,尤其关注网络覆盖不足的地区。它运行在约 550 公里的轨道高度,采用先进的推进和通信技术,支持高频段数据传输。作为 Starlink 计划的一部分,STARLINK-34253 有助于构建一个低延迟、高带宽的全球卫星互联网系统,提升远程通信和网络接入能力。
美国
(US)
| 数据来源 | 国际轨道数据 |
| 星历时间: | 2025-10-30T06:33:52+0800 1天前 查看轨道信息 |
| 半长轴: | 6853.304km |
| 偏心率: | 0.00017 |
| 轨道倾角: | 53.161° |
| 近地点辐角 | 94.066° |
| 升交点赤经 | 14.507° |
| 平近点角 | 266.053° |
| 近地点: | 474.003km |
| 远地点: | 476.335km |
| 周期: | 94.104分钟 |
| 每日圈数: | 15.302163 |